Terminal Aerodrome Forecast
Issued by NWS Cleveland, OH

Home | Current Version | Previous Version | Graphics & Text | Print | Product List | Glossary On
Versions: 1 2 3 4 5 6 7 8 9 10 11 12 13 14 15 16 17 18 19 20 21 22 23 24 25 26 27
820
FTUS41 KCLE 240328 AAA
TAFCLE
TAF AMD
KCLE 240328Z 2403/2506 16010KT P6SM SCT120 BKN200
     FM240500 17012KT P6SM VCSH OVC060
     FM240900 19015KT P6SM OVC060 WS020/23050KT
     FM241600 21018G26KT P6SM BKN045 BKN060
     FM250000 21012KT P6SM BKN045=

USA.gov is the U.S. government's official web portal to all federal, state and local government web resources and services.